Terminal Aerodrome Forecast
Issued by NWS Quad Cities IA IL

Home | Current Version | Previous Version | Text Only | Print | Product List | Glossary On
Versions: 1 2 3 4 5 6 7 8 9 10 11 12 13 14 15 16 17 18 19 20 21 22 23 24 25 26 27 28 29 30 31 32 33
000
FTUS43 KDVN 231600 AAC
TAFDBQ
TAF AMD
KDBQ 231637Z 2317/2412 22012KT P6SM OVC005
     FM231800 23008KT 5SM BR SCT009 OVC010
     FM240700 33010KT 3SM BR OVC006=

USA.gov is the U.S. government's official web portal to all federal, state and local government web resources and services.